Regional Weather Roundup
Issued by NWS

Home | Current Version | Previous Version | Text Only | Print | Product List | Glossary On
Versions: 1 2 3 4 5 6 7 8 9 10 11 12 13 14 15 16 17 18 19 20 21 22 23 24 25 26 27 28 29 30 31 32 33 34 35 36 37 38 39 40 41 42 43 44 45 46 47 48 49 50
188
ASUS43 KDMX 071708
RWRIA

WEATHER ROUNDUP FOR IOWA
NATIONAL WEATHER SERVICE DES MOINES IA
1100 AM CST SUN FEB 07 2016

NOTE: "FAIR" INDICATES FEW OR NO CLOUDS BELOW 12,000 FEET WITH NO
SIGNIFICANT WEATHER AND/OR OBSTRUCTIONS TO VISIBILITY.

* - THESE STATIONS ARE NOT NWS STATIONS...THUS NOT UNDER NWS
QUALITY CONTROL.  THEY ALSO DO NOT REPORT WEATHER SUCH
AS PRECIPITATION OR FOG.

IAZ001>003-012>014-020>022-031>034-043>046-071800-
   NORTHWEST IOWA

CITY           SKY/WX    TMP DP  RH WIND       PRES   REMARKS
CARROLL *      SUNNY     37  28  70 W22       29.89S WCI  27
CHEROKEE *     MOSUNNY   37  30  75 W15G25    29.89S WCI  28
DENISON *      MOSUNNY   37  28  70 W20       29.91S WCI  27
LE MARS *      SUNNY     39  32  75 W17       29.92S WCI  30
ORANGE CITY *  SUNNY     37  30  75 W24G31    29.87S WCI  26
SHELDON *      SUNNY     36  28  75 W20       29.83S WCI  25
SIOUX CITY     MOSUNNY   42  27  55 W22       29.93S
SPENCER        PTSUNNY   37  27  67 W24       29.83R WCI  26
STORM LAKE *     N/A     36  32  87 W22G28    29.88R WCI  24
$$

IAZ055>058-069>071-079>083-090>094-071800-
   SOUTHWEST IOWA

CITY           SKY/WX    TMP DP  RH WIND       PRES   REMARKS
ATLANTIC *     SUNNY     39  27  60 W16       29.96S WCI  30
AUDUBON *      SUNNY     39  28  65 W10       29.94S WCI  32
CLARINDA *     SUNNY     45  30  57 W15G22    30.03R
COUNCIL BLFS *   N/A     41  27  56 NW22      30.00R
CRESTON *      SUNNY     41  28  60 NW18      29.97R
HARLAN  *      MOSUNNY   39  28  65 W17G24    29.99R WCI  30
LAMONI         SUNNY     43  29  57 W21       29.97R
RED OAK *      SUNNY     43  30  61 W14       30.00R
SHENANDOAH *   SUNNY     43  32  65 W15G21    30.03R
$$

IAZ047>049-059>061-072>074-084-071800-
   CENTRAL IOWA

CITY           SKY/WX    TMP DP  RH WIND       PRES   REMARKS
AMES           CLOUDY    39  27  62 W17       29.87R WCI  30
ANKENY *       MOSUNNY   39  28  65 W13G20    29.90R WCI  32
BOONE *        SUNNY     39  28  65 W15G28    29.87R WCI  31
CHARITON *     SUNNY     43  27  52 NW14G24   29.93R
DES MOINES     PTSUNNY   42  26  53 NW21G28   29.91R
GRINNELL*      MOSUNNY   39  28  65 W18G25    29.87R WCI  30
KNOXVILLE *    SUNNY     43  27  52 W18       29.90R
MARSHALLTOWN   MOSUNNY   37  26  64 W15G26    29.84S WCI  28
NEWTON *       MIX PCPN  39  28  65 NW17G25   29.88R WCI  30
PELLA *        SUNNY     43  27  52 W13G29    29.91R
$$

IAZ004>006-015-016-023>025-035-036-071800-
   NORTH CENTRAL IOWA

CITY           SKY/WX    TMP DP  RH WIND       PRES   REMARKS
ALGONA *       SUNNY     37  30  75 W17G24    29.81S WCI  28
CLARION *      SUNNY     36  28  75 W18       29.83R WCI  25
ESTHERVILLE    MOSUNNY   36  28  73 W21       29.79R WCI  25
FORT DODGE *   MOSUNNY   37  28  70 W10G21    29.85S WCI  30
MASON CITY     MOSUNNY   36  28  73 W21       29.79R WCI  25
FOREST CITY *  SUNNY     36  28  75 W18       29.78S WCI  25
WEBSTER CITY * SUNNY     36  30  80 W16       29.83S WCI  26
IOWA FALLS *     N/A     36  28  75 W17       29.83R WCI  25
$$

IAZ007>011-017>019-026>030-037>042-050>054-066-071800-
   NORTHEAST IOWA

CITY           SKY/WX    TMP DP  RH WIND       PRES   REMARKS
CEDAR RAPIDS   SUNNY     40  32  73 W21       29.81R WCI  30
CHARLES CITY * MOSUNNY   36  28  75 W18G26    29.78R WCI  25
CLINTON *      MOSUNNY   40  33  76 W18       29.79S WCI  31
DECORAH *      SUNNY     37  27  65 W9G18     29.73R WCI  31
DUBUQUE        SUNNY     36  28  73 W16       29.76R WCI  26
MONTICELLO *   SUNNY     37  28  70 W12       29.79R WCI  30
OELWEIN *      SUNNY     36  28  75 W18       29.78S WCI  25
WATERLOO       MOSUNNY   38  25  59 W16G24    29.81R WCI  29
$$

IAZ064-065-067-068-078-071800-
   EAST CENTRAL IOWA

CITY           SKY/WX    TMP DP  RH WIND       PRES   REMARKS
DAVENPORT      CLOUDY    41  31  67 W21       29.81S
IOWA CITY      SUNNY     42  31  64 W15       29.85R
MT. PLEASANT * MOSUNNY   45  32  61 W20       29.87R
MUSCATINE *    SUNNY     45  30  57 W17       29.85R
QUAD CITIES    CLOUDY    41  29  62 MISG      29.81S
$$

IAZ062-063-075>077-085>089-095>099-071800-
   SOUTHEAST IOWA

CITY           SKY/WX    TMP DP  RH WIND       PRES   REMARKS
BURLINGTON     CLOUDY    41  30  65 W10       29.86R
FAIRFIELD *    SUNNY     43  30  61 NW22G29   29.87S
FORT MADISON * SUNNY     39  30  70 W13       29.88S WCI  32
KEOKUK *       SUNNY     43  30  61 W12G18    29.88S
OSKALOOSA *      N/A     41  32  70 NW18G25   29.90R
CENTERVILLE *    N/A    N/A N/A N/A MISG        N/A
OTTUMWA        SUNNY     44  30  57 W16       29.89R
WASHINGTON *   SUNNY     43  32  65 W18G25    29.88R
$$

ABBREVIATIONS USED IN REMARKS
   TC - TEMPERATURES IN CELSIUS
  WCI - WIND CHILL INDEX
   HX - HEAT INDEX
  VSB - VISIBILITY
$$





USA.gov is the U.S. government's official web portal to all federal, state and local government web resources and services.